TimeAKST,TemperatureF,Dew PointF,Humidity,Sea Level PressureIn,VisibilityMPH,Wind Direction,Wind SpeedMPH,Gust SpeedMPH,PrecipitationIn,Events,Conditions,WindDirDegrees,DateUTC
12:08 AM,-23.8,-29.2,76,30.50,2.5,Calm,Calm,-,N/A,,Haze,0,2012-11-07 09:08:00
12:16 AM,-23.8,-29.2,76,30.50,4.0,Calm,Calm,-,N/A,,Haze,0,2012-11-07 09:16:00
12:56 AM,-23.1,-29.9,70,30.57,5.0,Calm,Calm,-,N/A,,Haze,0,2012-11-07 09:56:00
1:17 AM,-23.8,-29.2,76,30.51,-9999.0,Calm,Calm,-,N/A,,Haze,0,2012-11-07 10:17:00
1:39 AM,-20.2,-27.4,69,30.51,-9999.0,Calm,Calm,-,N/A,,Haze,0,2012-11-07 10:39:00
1:56 AM,-23.1,-29.0,74,30.58,2.0,Calm,Calm,-,N/A,,Haze,0,2012-11-07 10:56:00
2:13 AM,-23.8,-29.2,76,30.52,4.0,Calm,Calm,-,N/A,,Haze,0,2012-11-07 11:13:00
2:56 AM,-23.1,-29.0,74,30.58,6.0,Calm,Calm,-,N/A,,Haze,0,2012-11-07 11:56:00
3:15 AM,-23.8,-29.2,76,30.52,10.0,Calm,Calm,-,N/A,,Scattered Clouds,0,2012-11-07 12:15:00
3:54 AM,-25.6,-31.0,76,30.52,6.2,Calm,Calm,-,N/A,,Mostly Cloudy,0,2012-11-07 12:54:00
3:56 AM,-25.1,-31.0,74,30.58,9.0,Calm,Calm,-,N/A,,Mostly Cloudy,0,2012-11-07 12:56:00
4:25 AM,-25.6,-31.0,76,30.52,10.0,Calm,Calm,-,N/A,,Partly Cloudy,0,2012-11-07 13:25:00
4:56 AM,-26.0,-31.0,77,30.59,10.0,Calm,Calm,-,N/A,,Mostly Cloudy,0,2012-11-07 13:56:00
6:23 AM,-25.6,-31.0,76,30.53,7.0,Calm,Calm,-,N/A,,Partly Cloudy,0,2012-11-07 15:23:00
6:55 AM,-23.8,-29.2,76,30.60,7.0,Calm,Calm,-,N/A,,Partly Cloudy,0,2012-11-07 15:55:00
7:55 AM,-25.6,-31.0,76,30.60,4.0,Calm,Calm,-,N/A,,Scattered Clouds,0,2012-11-07 16:55:00
8:27 AM,-25.6,-32.8,69,30.53,3.0,Calm,Calm,-,N/A,,Scattered Clouds,0,2012-11-07 17:27:00
8:55 AM,-25.6,-32.8,69,30.61,7.0,Calm,Calm,-,N/A,,Scattered Clouds,0,2012-11-07 17:55:00
9:55 AM,-25.6,-31.0,76,30.62,25.0,Calm,Calm,-,N/A,,Partly Cloudy,0,2012-11-07 18:55:00
10:55 AM,-20.2,-27.4,69,30.62,25.0,Calm,Calm,-,N/A,,Partly Cloudy,0,2012-11-07 19:55:00
11:55 AM,-16.6,-20.2,84,30.62,25.0,Calm,Calm,-,N/A,,Partly Cloudy,0,2012-11-07 20:55:00
12:06 PM,-16.6,-20.2,84,30.55,25.0,Calm,Calm,-,N/A,,Partly Cloudy,0,2012-11-07 21:06:00
12:10 PM,-16.6,-20.2,84,30.55,25.0,Calm,Calm,-,N/A,,Partly Cloudy,0,2012-11-07 21:10:00
12:55 PM,-14.8,-20.2,77,30.61,25.0,Calm,Calm,-,N/A,,Partly Cloudy,0,2012-11-07 21:55:00
1:55 PM,-11.2,-18.4,70,30.60,25.0,Calm,Calm,-,N/A,,Partly Cloudy,0,2012-11-07 22:55:00
2:55 PM,-11.2,-16.6,77,30.60,25.0,Calm,Calm,-,N/A,,Partly Cloudy,0,2012-11-07 23:55:00
3:55 PM,-11.2,-16.6,77,30.59,25.0,Calm,Calm,-,N/A,,Partly Cloudy,0,2012-11-08 00:55:00
4:55 PM,-14.8,-18.4,84,30.60,7.0,Calm,Calm,-,N/A,,Partly Cloudy,0,2012-11-08 01:55:00
5:55 PM,-16.6,-22.0,76,30.60,7.0,Calm,Calm,-,N/A,,Partly Cloudy,0,2012-11-08 02:55:00
6:55 PM,-20.2,-25.6,76,30.61,7.0,Calm,Calm,-,N/A,,Partly Cloudy,0,2012-11-08 03:55:00
7:55 PM,-18.4,-25.6,70,30.60,7.0,Calm,Calm,-,N/A,,Partly Cloudy,0,2012-11-08 04:55:00
8:55 PM,-20.2,-25.6,76,30.61,7.0,Calm,Calm,-,N/A,,Partly Cloudy,0,2012-11-08 05:55:00
9:55 PM,-22.0,-27.4,76,30.61,7.0,Calm,Calm,-,N/A,,Partly Cloudy,0,2012-11-08 06:55:00
9:56 PM,-20.9,-27.9,70,30.60,10.0,Calm,Calm,-,N/A,,Clear,0,2012-11-08 06:56:00
10:56 PM,-23.1,-29.0,74,30.60,10.0,Calm,Calm,-,N/A,,Clear,0,2012-11-08 07:56:00
11:56 PM,-22.0,-27.9,74,30.58,9.0,Calm,Calm,-,N/A,,Clear,0,2012-11-08 08:56:00